N23HU TISX-TIST

Flight info

Callsign N23HU
Flight time 0h 13m
Altitude 11000
Route HMLTN9 STT
Aircraft C25C/M-SDE2E3FGHRWXY/LB1

Departure

Time 2026-04-25 15:24
Airport Henry E. Rohlsen Airport (TISX)

Arrival

Time 2026-04-25 15:37
Airport Cyril E. King Airport (TIST)
Time Latitude Longitude Altitude Speed Heading
2026-04-25 15:07 17.70025 -64.79522 27 ft 0 kts 356°
2026-04-25 15:21 17.70052 -64.79525 27 ft 14 kts 348°
2026-04-25 15:21 17.70076 -64.79621 29 ft 19 kts 262°
2026-04-25 15:21 17.70062 -64.79792 32 ft 28 kts 261°
2026-04-25 15:21 17.70036 -64.80010 35 ft 31 kts 263°
2026-04-25 15:22 17.70009 -64.80266 39 ft 39 kts 263°
2026-04-25 15:22 17.69977 -64.80576 45 ft 46 kts 264°
2026-04-25 15:22 17.69949 -64.80844 50 ft 38 kts 265°
2026-04-25 15:22 17.69911 -64.81145 56 ft 45 kts 257°
2026-04-25 15:23 17.69888 -64.81462 58 ft 37 kts 265°
2026-04-25 15:23 17.69939 -64.81606 60 ft 21 kts 358°
2026-04-25 15:23 17.70020 -64.81516 57 ft 20 kts 84°
2026-04-25 15:23 17.70055 -64.81070 63 ft 118 kts 88°
2026-04-25 15:24 17.70182 -64.79937 421 ft 194 kts 85°
2026-04-25 15:24 17.70236 -64.78330 709 ft 225 kts 98°
2026-04-25 15:24 17.69945 -64.76808 964 ft 205 kts 111°
2026-04-25 15:24 17.69657 -64.75874 1144 ft 202 kts 104°
2026-04-25 15:25 17.69912 -64.73908 1646 ft 222 kts 65°
2026-04-25 15:25 17.70982 -64.72657 2056 ft 233 kts 46°
2026-04-25 15:25 17.72126 -64.71437 2605 ft 237 kts 45°
2026-04-25 15:25 17.73645 -64.70759 3167 ft 245 kts
2026-04-25 15:26 17.75311 -64.70983 3680 ft 245 kts 334°
2026-04-25 15:26 17.76810 -64.71794 4178 ft 247 kts 332°
2026-04-25 15:26 17.78352 -64.72596 4701 ft 248 kts 330°
2026-04-25 15:26 17.79896 -64.73424 5166 ft 250 kts 331°
2026-04-25 15:27 17.81446 -64.74222 5593 ft 254 kts 331°
2026-04-25 15:27 17.83093 -64.75080 5607 ft 274 kts 331°
2026-04-25 15:27 17.86530 -64.76866 6309 ft 278 kts 331°
2026-04-25 15:28 17.88265 -64.77763 6643 ft 279 kts 330°
2026-04-25 15:28 17.90005 -64.78675 6949 ft 280 kts 331°
2026-04-25 15:28 17.91754 -64.79578 7289 ft 280 kts 330°
2026-04-25 15:28 17.93484 -64.80485 7611 ft 281 kts 331°
2026-04-25 15:29 17.95223 -64.81384 7904 ft 282 kts 330°
2026-04-25 15:29 17.96983 -64.82307 8209 ft 283 kts 331°
2026-04-25 15:29 17.98741 -64.83215 8681 ft 275 kts 330°
2026-04-25 15:29 18.00435 -64.84103 9153 ft 272 kts 331°
2026-04-25 15:30 18.02118 -64.84977 9468 ft 274 kts 330°
2026-04-25 15:30 18.03828 -64.85870 9834 ft 274 kts 331°
2026-04-25 15:30 18.05540 -64.86761 10143 ft 275 kts 330°
2026-04-25 15:30 18.07261 -64.87658 10419 ft 277 kts 330°
2026-04-25 15:31 18.08989 -64.88560 10698 ft 278 kts 330°
2026-04-25 15:31 18.10737 -64.89471 10879 ft 283 kts 330°
2026-04-25 15:31 18.12529 -64.90409 10935 ft 292 kts 330°
2026-04-25 15:31 18.14373 -64.91368 10956 ft 300 kts 331°
2026-04-25 15:32 18.16263 -64.92356 10892 ft 308 kts 330°
2026-04-25 15:32 18.18182 -64.93357 10810 ft 298 kts 331°
2026-04-25 15:32 18.19969 -64.94291 10330 ft 281 kts 330°
2026-04-25 15:33 18.23294 -64.96029 8791 ft 254 kts 330°
2026-04-25 15:33 18.24924 -64.96709 7924 ft 250 kts 338°
2026-04-25 15:33 18.26295 -64.97726 7068 ft 239 kts 308°
2026-04-25 15:33 18.27414 -64.99015 6217 ft 237 kts 305°
2026-04-25 15:34 18.28317 -65.00470 5367 ft 240 kts 300°
2026-04-25 15:34 18.29425 -65.01806 4517 ft 242 kts 302°
2026-04-25 15:34 18.29826 -65.03457 3631 ft 234 kts 260°
2026-04-25 15:34 18.29705 -65.03994 3345 ft 233 kts 248°
2026-04-25 15:35 18.31721 -65.06332 1724 ft 209 kts 36°
2026-04-25 15:35 18.32675 -65.05399 1564 ft 174 kts 62°
2026-04-25 15:35 18.33184 -65.04318 1032 ft 164 kts 71°
2026-04-25 15:36 18.33543 -65.02239 330 ft 135 kts 90°
2026-04-25 15:36 18.33555 -65.01342 346 ft 121 kts 96°
2026-04-25 15:36 18.33601 -65.00458 313 ft 123 kts 89°
2026-04-25 15:37 18.33652 -64.99549 201 ft 124 kts 94°
2026-04-25 15:37 18.33680 -64.98619 118 ft 127 kts 93°
2026-04-25 15:37 18.33714 -64.97718 24 ft 114 kts 93°
2026-04-25 15:37 18.33722 -64.97103 12 ft 41 kts 122°
2026-04-25 15:38 18.33660 -64.97098 10 ft 0 kts 267°
2026-04-25 15:38 18.33659 -64.97114 11 ft 9 kts 266°
2026-04-25 15:39 18.33654 -64.97240 12 ft 25 kts 266°
2026-04-25 15:39 18.33622 -64.97394 12 ft 20 kts 214°
2026-04-25 15:39 18.33489 -64.97392 12 ft 19 kts 165°
2026-04-25 15:39 18.33399 -64.97304 11 ft 17 kts 131°
2026-04-25 15:40 18.33391 -64.97236 11 ft 0 kts 52°